Weather Roundup
Issued by NWS

Home | Current Version | Previous Version | Text Only | Print | Product List | Glossary On
Versions: 1 2 3 4 5 6 7 8 9 10 11 12 13 14 15 16 17 18 19 20 21 22 23 24 25 26 27 28 29 30 31 32 33 34 35 36 37 38 39 40 41 42 43 44 45 46 47 48 49 50
000
NZUS93 KARX 311010
HRRWXR

CURRENT HOURLY OBSERVATIONS ACROSS
MUCH OF THE UPPER MISSISSIPPI VALLEY
NATIONAL WEATHER SERVICE LA CROSSE WI
500 AM CDT SUN AUG 31 2014


...SOUTHEAST MINNESOTA...


CITY           SKY/WX    TMP DP  RH WIND       PRES   REMARKS
ROCHESTER      FOG       64  62  93 SE8       29.90S VSB 1/4
ROCHESTER/MAYO CLOUDY    63  62  97 SE7       29.89S VSB 1/4
WINONA         CLOUDY    63  61  94 SE6       29.89F
AUSTIN         CLEAR     59  59 100 SE3       29.87F FOG
ALBERT LEA     CLEAR     63  63 100 SE5       29.87S FOG
DODGE CENTER   DRZL/FOG  64  63  94 SE9       29.87F VSB 1/2
PRESTON        FOG       63  63 100 CALM      29.90F VSB 1/4
OWATONNA       PTCLDY    63  61  94 SE7       29.86F
FARIBAULT      CLOUDY    66  61  82 SE8       29.85F HAZE
$$

...ELSEWHERE IN MINNESOTA...


CITY           SKY/WX    TMP DP  RH WIND       PRES   REMARKS
MINNEAPOLIS    PTCLDY    63  61  93 SE14      29.84F
INTNL FALLS    CLOUDY    60  58  92 SE7       29.82F
DULUTH         CLOUDY    59  57  93 E10       29.88F
RED WING       PTCLDY    63  61  94 SE5       29.86F
REDWOOD FALLS  MOCLDY    61  60  97 SE10      29.76F
MANKATO        CLEAR     63  57  82 SE8       29.83S
WORTHINGTON    PTCLDY    64  61  88 S12       29.80F
FAIRMONT       CLEAR     61  55  82 S8        29.83F
$$

...SOUTHWEST WISCONSIN...


CITY           SKY/WX    TMP DP  RH WIND       PRES   REMARKS
LA CROSSE      CLOUDY    64  62  93 E6        29.90F
PRAIRIE DU CHI FOG       62  61  94 CALM      29.90F VSB 1
BOSCOBEL       FOG       66  64  93 CALM      29.91F VSB 1/4
LONE ROCK      FOG       69  65  86 S3        29.91F VSB 1/4
PLATTEVILLE    PTCLDY    62  62  97 CALM      29.93S
FORT MC COY    CLOUDY    60  59  97 CALM      29.92F
CAMP DOUGLAS   PTCLDY    61  61 100 N1        29.93R
VIROQUA        PTSUNNY   63  63 100 E5        29.93S
WIS DELLS      CLOUDY    65  63  93 CALM      29.92S
$$

...ELSEWHERE IN WISCONSIN...


CITY           SKY/WX    TMP DP  RH WIND       PRES   REMARKS
MILWAUKEE      MOCLDY    64  63  96 CALM      29.92R
MADISON        FOG       61  60  97 CALM      29.92S VSB 1/4
GREEN BAY      CLOUDY    63  60  90 NW3       29.94R
EAU CLAIRE     PTCLDY    56  56 100 NE5       29.89S
BLACK RVR FLS  FOG       58  58 100 CALM      29.91F VSB<1/4
MEDFORD        CLOUDY    55  55  99 E5        29.93F
WAUSAU         CLOUDY    60  57  89 E3        29.92F
WIS RAPIDS     CLOUDY    59  59 100 CALM      29.95R FOG
MARSHFIELD     MOCLDY    61  58  90 E5        29.93S
RICE LAKE      CLEAR     57  55  93 CALM      29.91F
$$

...NORTHEAST IOWA...


CITY           SKY/WX    TMP DP  RH WIND       PRES   REMARKS
WATERLOO       PTCLDY    58  57  97 E3        29.88F FOG
DUBUQUE        PTCLDY    62  61  96 CALM      29.92F FOG
DECORAH        FOG       63  63 100 CALM      29.90F VSB 1/2
MASON CITY     CLEAR     59  59 100 SE6       29.88F FOG
CHARLES CITY   CLEAR     61  61 100 SE5       29.90S FOG
OELWEIN        PTCLDY    61  61 100 SE6       29.91F FOG
$$

...ELSEWHERE IN IOWA...


CITY           SKY/WX    TMP DP  RH WIND       PRES   REMARKS
DES MOINES     PTCLDY    69  64  84 SE8       29.86F
IOWA CITY      PTCLDY    63  63 100 CALM      29.91S FOG
FORT DODGE     CLEAR     64  63  94 SE6       29.86F
MARSHALLTOWN   CLEAR     61  60  97 SE3       29.88F FOG
CEDAR RAPIDS   FOG       61  61 100 E3        29.90S VSB 3/4
$$

...NORTHERN ILLINOIS...


CITY           SKY/WX    TMP DP  RH WIND       PRES   REMARKS
CHICAGO-OHARE  MOCLDY    71  66  84 SW5       29.93R
DUPAGE         CLOUDY    69  67  93 S3        29.93R FOG
CHICAGO-MIDWAY MOCLDY    71  67  87 SW5       29.92S
MOLINE         MOCLDY    62  61  96 CALM      29.92R FOG
ROCKFORD       PTCLDY    63  61  93 CALM      29.95R
STERLING       CLEAR     63  59  88 CALM      29.93S
PEORIA         CLOUDY    71  67  87 CALM      29.93R
$$

NOTE: "FAIR" INDICATES FEW OR NO CLOUDS BELOW 12,000 FEET WITH NO
SIGNIFICANT WEATHER AND/OR OBSTRUCTIONS TO VISIBILITY. WIND
SPEEDS ARE IN MILES-PER-HOUR.



USA.gov is the U.S. government's official web portal to all federal, state and local government web resources and services.